Bogalusa, LA

10:51 PM CST on November 18, 2017 (GMT -0600)
Carr Memorial

Weather History for KBXA - August, 2014

Change the Weather History Date:

Thursday, August 14, 2014

  Actual Average Record
Temperature  
Mean Temperature 77 °F -  
Max Temperature 89 °F 91 °F 96 °F (2015)
Min Temperature 65 °F 71 °F 65 °F (2014)
Cooling Degree Days 12    
Growing Degree Days 27 (Base 50)    
Moisture  
Dew Point 64 °F    
Average Humidity 66    
Maximum Humidity 88    
Minimum Humidity 35    
Precipitation  
Precipitation 0.00 in - - ()
Sea Level Pressure  
Sea Level Pressure 30.03 in    
Wind  
Wind Speed 2 mph (North)    
Max Wind Speed 6 mph    
Max Gust Speed -    
Visibility 10 miles    
Events      
Averages and records for this station are not official NWS values.
T = Trace of Precipitation, MM = Missing Value Source: NWS Daily Summary

Daily Weather History Graph

Daily Weather History Graph

Search for Another Location

Airport or City:

Trip Planner

Search our weather history database for the weather conditions in past years. The results will help you decide how hot, cold, wet, or windy it might be!

Date:

Astronomy

Aug. 14, 2014 Rise Set
Actual Time 6:25 AM CDT 7:42 PM CDT
Civil Twilight 5:59 AM CDT 8:08 PM CDT
Nautical Twilight 5:29 AM CDT 8:38 PM CDT
Astronomical Twilight 4:57 AM CDT 9:09 PM CDT
Moon 10:29 PM CDT (8/14) 10:40 AM CDT (8/14)
Length of Visible Light 14h 08m
Length of Day
13h 17m
Waning Gibbous, 79% of the Moon is Illuminated
Aug 14
Waning Gibbous
Aug 17
Last Quarter
Aug 25
New
Sep 2
First Quarter
Sep 8
Full

Hourly Weather History & Observations

Time (CDT) Temp. Heat Index Dew Point Humidity Pressure Visibility Wind Dir Wind Speed Gust Speed Precip Events Conditions
12:15 AM 70.9 °F - 66.4 °F 86% 30.03 in 10.0 mi North 4.6 mph - N/A   Clear
12:35 AM 70.7 °F - 66.2 °F 86% 30.03 in 10.0 mi North 3.5 mph - N/A   Clear
12:55 AM 70.3 °F - 66.2 °F 87% 30.03 in 10.0 mi North 3.5 mph - N/A   Unknown
1:20 AM 70.2 °F - 65.7 °F 86% 30.03 in 10.0 mi Calm Calm - N/A   Unknown
1:35 AM 70.3 °F - 66.2 °F 87% 30.03 in 10.0 mi North 3.5 mph - N/A   Unknown
1:55 AM 70.2 °F - 65.3 °F 85% 30.03 in 10.0 mi North 3.5 mph - N/A   Unknown
2:15 AM 70.3 °F - 64.4 °F 81% 30.03 in - Calm Calm - N/A   Unknown
2:35 AM 69.3 °F - 64.4 °F 84% 30.02 in 10.0 mi Calm Calm - N/A   Unknown
2:55 AM 69.1 °F - 63.9 °F 83% 30.02 in 10.0 mi Calm Calm - N/A   Unknown
3:15 AM 68.9 °F - 63.7 °F 83% 30.02 in 10.0 mi Calm Calm - N/A   Clear
3:35 AM 68.5 °F - 63.5 °F 84% 30.02 in 10.0 mi Calm Calm - N/A   Clear
3:55 AM 68.7 °F - 63.3 °F 83% 30.02 in 10.0 mi Calm Calm - N/A   Unknown
4:15 AM 68.2 °F - 63.5 °F 85% 30.03 in 10.0 mi Calm Calm - N/A   Unknown
4:35 AM 67.5 °F - 63.7 °F 88% 30.03 in 10.0 mi Calm Calm - N/A   Unknown
4:55 AM 67.3 °F - 63.5 °F 88% 30.03 in 10.0 mi Calm Calm - N/A   Unknown
5:15 AM 67.3 °F - 63.0 °F 86% 30.03 in 10.0 mi Calm Calm - N/A   Unknown
5:35 AM 66.2 °F - 62.2 °F 87% 30.04 in 10.0 mi North 3.5 mph - N/A   Unknown
5:55 AM 66.2 °F - 61.7 °F 85% 30.03 in 10.0 mi Calm Calm - N/A   Clear
6:15 AM 66.4 °F - 61.9 °F 85% 30.04 in 10.0 mi Calm Calm - N/A   Clear
6:35 AM 65.7 °F - 61.7 °F 87% 30.04 in 10.0 mi Calm Calm - N/A   Clear
6:55 AM 66.2 °F - 61.7 °F 85% 30.05 in 10.0 mi Calm Calm - N/A   Clear
7:15 AM 67.1 °F - 62.1 °F 84% 30.05 in 10.0 mi Calm Calm - N/A   Clear
7:35 AM 68.7 °F - 62.8 °F 81% 30.06 in 10.0 mi Calm Calm - N/A   Clear
7:55 AM 70.0 °F - 63.3 °F 79% 30.07 in 10.0 mi North 3.5 mph - N/A   Clear
8:15 AM 72.0 °F - 63.5 °F 75% 30.07 in - North 3.5 mph - N/A   Clear
8:35 AM 73.6 °F - 63.9 °F 72% 30.07 in 10.0 mi North 5.8 mph - N/A   Clear
8:55 AM 75.0 °F - 63.5 °F 67% 30.08 in 10.0 mi NE 3.5 mph - N/A   Clear
9:15 AM 76.6 °F - 63.5 °F 64% 30.08 in 10.0 mi NNE 3.5 mph - N/A   Clear
9:35 AM 78.3 °F - 63.5 °F 60% 30.08 in 10.0 mi NE 3.5 mph - N/A   Clear
9:55 AM 80.4 °F 82.2 °F 65.1 °F 59% 30.08 in 7.0 mi Calm Calm - N/A   Clear
10:15 AM 81.5 °F 83.3 °F 64.9 °F 57% 30.08 in - NE 3.5 mph - N/A   Clear
10:35 AM 82.9 °F 83.8 °F 62.6 °F 50% 30.08 in - ENE 4.6 mph - N/A   Clear
10:55 AM 84.2 °F 85.4 °F 63.5 °F 50% 30.08 in - NNE 4.6 mph - N/A   Unknown
11:15 AM 84.4 °F 85.2 °F 63.0 °F 48% 30.08 in - NNE 3.5 mph - N/A   Unknown
11:35 AM 85.8 °F 86.6 °F 62.8 °F 46% 30.07 in 10.0 mi NE 3.5 mph - N/A   Unknown
11:55 AM 85.6 °F 86.1 °F 61.9 °F 45% 30.06 in - NNE 3.5 mph - N/A   Unknown
12:15 PM 86.4 °F 87.6 °F 64.0 °F 47% 30.06 in 10.0 mi NNE 5.8 mph - N/A   Unknown
12:35 PM 86.9 °F 87.5 °F 62.4 °F 44% 30.05 in - NNE 4.6 mph - N/A   Unknown
12:55 PM 87.1 °F 86.7 °F 60.3 °F 40% 30.05 in - North 3.5 mph - N/A   Unknown
1:15 PM 87.8 °F 88.2 °F 62.2 °F 42% 30.04 in - NE 3.5 mph - N/A   Clear
1:35 PM 87.8 °F 87.6 °F 60.6 °F 40% 30.04 in 10.0 mi NNW 4.6 mph - N/A   Clear
1:55 PM 87.6 °F 86.9 °F 59.4 °F 38% 30.04 in - Calm Calm - N/A   Unknown
2:15 PM 88.7 °F 87.5 °F 57.6 °F 35% 30.03 in 10.0 mi Calm Calm - N/A   Unknown
2:35 PM 88.7 °F 88.0 °F 59.5 °F 37% 30.03 in - NNE 3.5 mph - N/A   Unknown
2:55 PM 88.9 °F 88.0 °F 59.0 °F 36% 30.02 in - WNW 3.5 mph - N/A   Unknown
3:15 PM 89.2 °F 88.7 °F 59.5 °F 37% 30.01 in 10.0 mi SW 4.6 mph - N/A   Unknown
3:35 PM 89.2 °F 88.4 °F 59.2 °F 36% 30.00 in - Calm Calm - N/A   Unknown
3:55 PM 89.6 °F 89.2 °F 59.9 °F 37% 30.00 in - West 3.5 mph - N/A   Unknown
4:15 PM 89.6 °F 88.9 °F 59.4 °F 36% 30.00 in - WNW 4.6 mph - N/A   Unknown
4:35 PM 89.4 °F 88.4 °F 58.5 °F 35% 29.99 in - Calm Calm - N/A   Unknown
4:55 PM 89.2 °F 88.2 °F 58.6 °F 35% 29.99 in - Calm Calm - N/A   Unknown
5:15 PM 89.2 °F 88.4 °F 59.4 °F 36% 29.99 in - WNW 5.8 mph - N/A   Unknown
5:35 PM 89.2 °F 88.7 °F 59.5 °F 37% 29.98 in - Calm Calm - N/A   Unknown
5:55 PM 88.5 °F 88.1 °F 60.3 °F 38% 29.98 in - NNW 4.6 mph - N/A   Unknown
6:15 PM 88.0 °F 87.9 °F 61.2 °F 40% 29.98 in - NW 4.6 mph - N/A   Unknown
6:35 PM 87.3 °F 87.5 °F 61.9 °F 42% 29.98 in - WNW 3.5 mph - N/A   Unknown
6:55 PM 86.0 °F 88.5 °F 66.6 °F 52% 29.99 in - North 3.5 mph - N/A   Unknown
7:15 PM 83.5 °F 86.2 °F 67.3 °F 58% 29.99 in - NNW 3.5 mph - N/A   Clear
7:35 PM 80.6 °F 84.2 °F 70.7 °F 72% 29.99 in - North 3.5 mph - N/A   Clear
7:55 PM 78.8 °F - 68.7 °F 71% 29.99 in - Calm Calm - N/A   Scattered Clouds
8:15 PM 76.8 °F - 69.8 °F 79% 30.00 in - Calm Calm - N/A   Unknown
8:35 PM 76.8 °F - 68.0 °F 74% 30.00 in 10.0 mi Calm Calm - N/A   Unknown
8:55 PM 75.0 °F - 68.9 °F 81% 30.00 in 10.0 mi Calm Calm - N/A   Unknown
9:15 PM 74.3 °F - 68.9 °F 83% 30.00 in 10.0 mi Calm Calm - N/A   Clear
9:35 PM 73.8 °F - 68.2 °F 83% 30.01 in 10.0 mi Calm Calm - N/A   Clear
9:55 PM 72.9 °F - 67.8 °F 84% 30.01 in 10.0 mi Calm Calm - N/A   Clear
10:15 PM 73.4 °F - 67.3 °F 81% 30.01 in 10.0 mi Calm Calm - N/A   Clear
10:35 PM 72.3 °F - 67.1 °F 84% 30.02 in 10.0 mi Calm Calm - N/A   Clear
10:55 PM 71.6 °F - 66.7 °F 85% 30.02 in 10.0 mi Calm Calm - N/A   Clear
11:15 PM 71.2 °F - 66.7 °F 86% 30.02 in 10.0 mi Calm Calm - N/A   Unknown
11:35 PM 70.5 °F - 66.0 °F 86% 30.02 in 10.0 mi Calm Calm - N/A   Unknown
11:55 PM 70.0 °F - 66.0 °F 87% 30.02 in 10.0 mi Calm Calm - N/A   Unknown